Flag for U.S.A. Weather past 2 weeks in Atlanta, Georgia, U.S.A.

Now
76 °F

Overcast.


Feels Like: 77 °F
Forecast: 67 / 82 °F
Wind: 7 mph from North

Location: Fulton County Airport-Brown Field

Current Time: Aug 1, 2014 at 12:56:46 PM

Latest Report: Aug 1, 2014 at 11:53 AM


Visibility: 10 mi

Pressure: 30.07 "Hg

Humidity: 74%

Dew point: 67 °F

Location of AtlantaLocation

Historic Weather in Atlanta — Graph

°F

Atlanta temperature yesterday

Maximum temperature yesterday: 85 °F (at 3:53 PM)
Minimum temperature yesterday: 65 °F (at 3:53 AM)
Average temperature yesterday: 73 °F

Past Weeks' High & Low Weather Summary

 TemperatureHumidityPressure
High92 °F (Jul 27, 3:53 PM)97% (Jul 20, 5:53 AM)30.13 "Hg (Jul 20, 5:53 AM)
Low57 °F (Jul 30, 6:53 AM)36% (Jul 17, 5:53 PM)29.87 "Hg (Jul 28, 4:53 PM)
Average76 °F75%30.01 "Hg
* Reported Jul 17 10:53 AM — Aug 1 10:53 AM, Atlanta, Weather by CustomWeather, © 2014

Note: Actual official high and low records may vary slightly from our data, if they occured in-between our weather recording intervals... More about our weather records

Advertising

Atlanta weather history for previous 24 hours

 ConditionsComfort  
Time TempWeatherWind HumidityBarometerVisibility
10:53 AM
Aug 1
73 °FMostly cloudy.7 mph81%30.07 "Hg10 mi
9:53 AM70 °FMostly cloudy.7 mph84%30.07 "Hg10 mi
8:59 AM68 °FMore clouds than sun.5 mph88%30.09 "Hg10 mi
7:53 AM67 °FLow clouds.7 mph93%30.05 "Hg10 mi
6:53 AM68 °FLow clouds.9 mph90%30.04 "Hg10 mi
5:53 AM68 °FLow clouds.6 mph90%30.03 "Hg10 mi
4:53 AM68 °FLow clouds.7 mph90%30.02 "Hg10 mi
3:53 AM68 °FLight rain. Low clouds.7 mph93%30.02 "Hg9 mi
2:53 AM68 °FLow clouds.6 mph90%30.03 "Hg10 mi
2:02 AM66 °FMostly cloudy.7 mph94%30.06 "Hg10 mi
1:53 AM67 °FLight rain. Mostly cloudy.7 mph93%30.04 "Hg9 mi
12:53 AM67 °FLight rain. Overcast.5 mph93%30.06 "Hg7 mi
11:53 PM
Jul 31
68 °FLight rain. Passing clouds.7 mph90%30.07 "Hg10 mi
10:53 PM68 °FLight rain. Passing clouds.7 mph90%30.08 "Hg10 mi
9:53 PM69 °FLight rain. Mostly cloudy.7 mph90%30.07 "Hg10 mi
8:53 PM70 °FLight rain. Scattered clouds.6 mph90%30.05 "Hg10 mi
7:53 PM71 °FLight rain. Low clouds.8 mph87%30.05 "Hg10 mi
6:53 PM71 °FLight rain. Mostly cloudy.8 mph93%30.04 "Hg9 mi
6:02 PM73 °FThunderstorms. Fog.16 mph89%30.06 "Hg4 mi
5:55 PM75 °FThunderstorms. Mostly cloudy.18 mph78%30.06 "Hg10 mi
4:53 PM85 °FPassing clouds.7 mph55%30.00 "Hg10 mi
3:53 PM85 °FPassing clouds.7 mph57%30.01 "Hg10 mi
2:53 PM84 °FPartly sunny.6 mph61%30.03 "Hg10 mi
2:04 PM82 °FPartly sunny.No wind66%30.06 "Hg10 mi
1:53 PM81 °FSunny.8 mph67%30.04 "Hg10 mi
12:53 PM79 °FPartly sunny.6 mph67%30.05 "Hg10 mi
12:01 PM79 °FPassing clouds.8 mph65%30.08 "Hg10 mi
Weather by CustomWeather, © 2014

See weather overviewHow to use our weather pages